Flag for Germany Weather past 2 weeks in Detmold, North Rhine-Westphalia, Germany

Now
58 °F

Passing clouds.


Feels Like: 58 °F
Forecast: 45 / 74 °F
Wind: 1 mph from Northwest

Location: Bad Lippspringe


UV Index: 3 (Moderate)

Visibility: 4 mi


Pressure: 30.11 "Hg

Humidity: 70%

Dew point: 49 °F

Location of DetmoldLocation

Historic Weather in Detmold

°F

Detmold temperature yesterday

Maximum temperature yesterday: 62 °F (at 4:00 PM)
Minimum temperature yesterday: 41 °F (at 6:00 AM)
Average temperature yesterday: 51 °F

Past Weeks' High & Low Weather Summary

 TemperatureHumidityPressure
High67 °F (Apr 20, 5:00 PM)98% (Apr 12, 7:00 AM)30.47 "Hg (Apr 12, 7:00 AM)
Low28 °F (Apr 16, 7:00 AM)34% (Apr 17, 4:00 PM)29.65 "Hg (Apr 21, 5:00 PM)
Average49 °F76%30.05 "Hg
* Reported Apr 8 10:00 AM — Apr 23 10:00 AM, Detmold, Weather by CustomWeather, © 2014

Note: Actual official high and low records may vary slightly from our data, if they occured in-between our weather recording intervals... More about our weather records

Advertising

Historic Weather Conditions — Data for Previous 24 hours

 ConditionsComfort  
Time TempWeatherWind HumidityBarometerVisibility
10:00 AM
Apr 23
58 °FPassing clouds.1 mph70%30.11 "Hg4 mi
9:00 AM52 °FFog.1 mph94%30.11 "Hg2 mi
8:00 AM47 °FFog.No wind98%30.11 "Hg1 mi
7:00 AM41 °FFog.1 mph97%30.10 "Hg1 mi
6:00 AM40 °FClear.1 mph97%30.09 "Hg1 mi
5:00 AM44 °FFog.1 mph97%30.08 "Hg1 mi
4:00 AM43 °FFog.1 mph97%30.07 "Hg1 mi
3:00 AM42 °FFog.1 mph96%30.06 "Hg1 mi
2:00 AM43 °FFog.1 mph97%30.06 "Hg2 mi
1:00 AM44 °FFog.1 mph97%30.05 "Hg2 mi
12:00 AM44 °FFog.2 mph96%30.02 "Hg2 mi
11:00 PM
Apr 22
46 °FFog.1 mph95%30.01 "Hg3 mi
10:00 PM47 °FFog.2 mph94%30.00 "Hg4 mi
9:00 PM49 °FFog.1 mph89%29.97 "Hg4 mi
8:00 PM58 °FPassing clouds.1 mph73%29.94 "Hg8 mi
7:00 PM59 °FPassing clouds.2 mph70%29.93 "Hg8 mi
6:00 PM55 °FLight rain. Partly sunny.2 mph81%29.93 "Hg6 mi
5:00 PM61 °FOvercast.1 mph63%29.90 "Hg9 mi
4:00 PM62 °FOvercast.2 mph58%29.89 "Hg11 mi
3:00 PM59 °FOvercast.2 mph66%29.89 "Hg14 mi
2:00 PM58 °FOvercast.1 mph73%29.89 "Hg8 mi
1:00 PM56 °FOvercast.2 mph78%29.88 "Hg7 mi
12:00 PM55 °FOvercast.2 mph78%29.87 "Hg6 mi
11:00 AM55 °FOvercast.1 mph82%29.85 "Hg5 mi
10:00 AM52 °FFog.1 mph89%29.83 "Hg3 mi
Weather by CustomWeather, © 2014

See weather overview